DIRECTV 7S

Last updated on Feb. 19, 2021, 6:33 a.m. UTC

1 28238U 04016A   21049.73534703 -.00000018  00000-0  00000-0 0  9992
2 28238   0.1222  91.3187 0002789  25.7159 142.3557  0.98917602 61563
UTC
Height (km)
Latitude
Longitude
Inclination
Orbital Period
UTC large
Height (km)
Speed (km/s)
/
Latitude / Longitude
Inclination (degrees)
Orbital Period (minutes)
Azimuth
Elevation
Range (km)
Doppler Factor
iOS Compass Heading
iOS Angle

Next 30 passes for location: Hong Kong

Rise time Rise Azimuth (degrees) Set time Set Azimuth (degrees) Duration Max altitude (degrees)

No matching passes for this satellites